Weather History for KIAG - April, 2013

Change the Weather History Date:

Wednesday, April 3, 2013

  Actual Average Record
Temperature  
Mean Temperature 30 °F -  
Max Temperature 37 °F 46 °F 77 °F (1999)
Min Temperature 24 °F 30 °F 23 °F (1991)
Degree Days  
Heating Degree Days 34    
Moisture  
Dew Point 14 °F    
Average Humidity 52    
Maximum Humidity 69    
Minimum Humidity 37    
Precipitation  
Precipitation 0.00 in - - ()
Sea Level Pressure  
Sea Level Pressure 30.29 in    
Wind  
Wind Speed 15 mph (WNW)    
Max Wind Speed 22 mph    
Max Gust Speed 30 mph    
Visibility 10 miles    
Events Snow    
Averages and records for this station are not official NWS values.
T = Trace of Precipitation, MM = Missing Value Source: NWS Daily Summary

Daily Weather History Graph

Daily Weather History Graph

Search for Another Location

Airport or City:

Trip Planner

Search our weather history database for the weather conditions in past years. The results will help you decide how hot, cold, wet, or windy it might be!

Date:

Astronomy

Apr. 03, 2013 Rise Set
Actual Time 6:53 AM EDT 7:44 PM EDT
Civil Twilight 6:25 AM EDT 8:13 PM EDT
Nautical Twilight 5:50 AM EDT 8:47 PM EDT
Astronomical Twilight 5:15 AM EDT 9:23 PM EDT
Moon 2:43 AM EDT (4/3) 12:45 PM EDT (4/3)
Length of Visible Light 13h 48m
Length of Day
12h 50m
Last Quarter, 45% of the Moon is Illuminated
Apr 3
Last Quarter
Apr 10
New
Apr 18
First Quarter
Apr 25
Full
May 2
Last Quarter

Hourly Weather History & Observations

Time (EDT) Temp. Windchill Dew Point Humidity Pressure Visibility Wind Dir Wind Speed Gust Speed Precip Events Conditions
12:53 AM 28.9 °F 17.7 °F 16.0 °F 58% 30.18 in 10.0 mi NW 15.0 mph 21.9 mph N/A   Mostly Cloudy
1:53 AM 28.0 °F 17.0 °F 16.0 °F 61% 30.18 in 10.0 mi WNW 13.8 mph - N/A   Mostly Cloudy
2:53 AM 27.0 °F 16.7 °F 15.1 °F 61% 30.17 in 10.0 mi WNW 11.5 mph - N/A   Clear
3:53 AM 28.0 °F 18.1 °F 15.1 °F 58% 30.17 in 10.0 mi NW 11.5 mph - N/A   Overcast
4:53 AM 27.0 °F 15.2 °F 12.9 °F 56% 30.19 in 10.0 mi WNW 15.0 mph - N/A   Scattered Clouds
5:53 AM 26.1 °F 15.6 °F 15.1 °F 63% 30.21 in 10.0 mi WNW 11.5 mph - N/A   Mostly Cloudy
6:53 AM 26.1 °F 14.5 °F 14.0 °F 60% 30.23 in 10.0 mi WNW 13.8 mph - N/A   Mostly Cloudy
7:00 AM 24.8 °F 11.9 °F 15.8 °F 69% 30.19 in 10.0 mi WNW 16.1 mph 24.2 mph N/A   Mostly Cloudy
7:53 AM 26.1 °F 13.6 °F 15.1 °F 63% 30.25 in 10.0 mi WNW 16.1 mph 23.0 mph N/A   Mostly Cloudy
8:53 AM 27.0 °F 16.7 °F 15.1 °F 61% 30.26 in 10.0 mi WNW 11.5 mph 24.2 mph N/A   Mostly Cloudy
9:53 AM 30.0 °F 18.3 °F 14.0 °F 51% 30.27 in 10.0 mi NW 17.3 mph - N/A   Mostly Cloudy
10:53 AM 30.0 °F 18.7 °F 14.0 °F 51% 30.28 in 10.0 mi NW 16.1 mph 24.2 mph N/A   Mostly Cloudy
11:49 AM 30.2 °F 18.9 °F 14.0 °F 51% 30.26 in 10.0 mi WNW 16.1 mph 24.2 mph 0.00 in Snow Light Snow
11:53 AM 30.9 °F 19.1 °F 14.0 °F 50% 30.31 in 10.0 mi WNW 18.4 mph 24.2 mph 0.00 in Snow Light Snow
12:35 PM 33.8 °F 21.9 °F 12.2 °F 41% 30.27 in 10.0 mi WNW 21.9 mph 27.6 mph 0.00 in   Mostly Cloudy
12:53 PM 33.1 °F 21.9 °F 12.9 °F 43% 30.32 in 10.0 mi WNW 18.4 mph 28.8 mph 0.00 in   Mostly Cloudy
1:53 PM 34.0 °F 22.4 °F 12.9 °F 42% 30.32 in 10.0 mi NW 20.7 mph 27.6 mph N/A   Mostly Cloudy
2:53 PM 37.0 °F 26.7 °F 12.9 °F 37% 30.33 in 10.0 mi WNW 19.6 mph 26.5 mph N/A   Mostly Cloudy
3:53 PM 36.0 °F 25.3 °F 12.9 °F 39% 30.34 in 10.0 mi WNW 19.6 mph 25.3 mph N/A   Scattered Clouds
4:53 PM 35.1 °F 23.8 °F 12.0 °F 39% 30.34 in 10.0 mi WNW 20.7 mph 29.9 mph N/A   Partly Cloudy
5:53 PM 34.0 °F 22.4 °F 10.9 °F 38% 30.36 in 10.0 mi WNW 20.7 mph 27.6 mph N/A   Partly Cloudy
6:53 PM 33.1 °F 23.0 °F 12.0 °F 42% 30.38 in 10.0 mi WNW 15.0 mph - N/A   Partly Cloudy
7:53 PM 30.9 °F 22.2 °F 12.9 °F 47% 30.41 in 10.0 mi WNW 10.4 mph - N/A   Partly Cloudy
8:53 PM 30.0 °F 19.1 °F 14.0 °F 51% 30.43 in 10.0 mi West 15.0 mph - N/A   Partly Cloudy
9:53 PM 28.9 °F 19.2 °F 15.1 °F 56% 30.43 in 10.0 mi WNW 11.5 mph - N/A   Clear
10:53 PM 27.0 °F 17.3 °F 15.1 °F 61% 30.42 in 10.0 mi WSW 10.4 mph - N/A   Clear
11:53 PM 25.0 °F 18.1 °F 15.1 °F 66% 30.40 in 10.0 mi WSW 5.8 mph - N/A   Clear